Flag for Australia Weather past 2 weeks in Brisbane, Queensland, Australia

Now
68 °F

Clear.


Feels Like: 68 °F
Forecast: 55 / 80 °F
Wind: 10 mph from Northeast

Location: Brisbane Airport M. O

Current Time: Oct 23, 2014 at 10:41:45 PM

Latest Report: Oct 23, 2014 at 10:00 PM


Visibility: 10 mi

Pressure: 30.15 "Hg

Humidity: 69%

Dew point: 57 °F

Location of BrisbaneLocation

Historic Weather in Brisbane — Graph

°F

Brisbane temperature yesterday

Maximum temperature yesterday: 73 °F (at 11:30 AM)
Minimum temperature yesterday: 63 °F (at 1:00 AM)
Average temperature yesterday: 67 °F

Past Weeks' High & Low Weather Summary

 TemperatureHumidityPressure
High82 °F (Oct 14, 12:30 PM)94% (Oct 14, 4:00 AM)30.33 "Hg (Oct 14, 4:00 AM)
Low54 °F (Oct 15, 4:30 AM)14% (Oct 14, 5:00 PM)29.74 "Hg (Oct 14, 2:00 PM)
Average69 °F60%30.10 "Hg
* Reported Oct 8 9:00 PM — Oct 23 9:00 PM, Brisbane, Weather by CustomWeather, © 2014

Note: Actual official high and low records may vary slightly from our data, if they occured in-between our weather recording intervals... More about our weather records

Advertising

Brisbane weather history for previous 24 hours

 ConditionsComfort  
Time TempWeatherWind HumidityBarometerVisibility
9:00 PM
Oct 23
68 °FClear.7 mph69%30.15 "Hg10 mi
8:30 PM68 °FClear.10 mph69%30.15 "Hg10 mi
8:00 PM68 °FClear.10 mph69%30.12 "Hg10 mi
7:30 PM68 °FClear.12 mph64%30.12 "Hg10 mi
7:00 PM70 °FPassing clouds.14 mph60%30.12 "HgN/A
6:30 PM68 °FPassing clouds.14 mph69%30.09 "HgN/A
6:00 PM70 °FPassing clouds.13 mph60%30.09 "HgN/A
5:30 PM70 °FPartly sunny.16 mph60%30.07 "HgN/A
5:00 PM72 °FScattered clouds.16 mph61%30.07 "HgN/A
4:00 PM73 °FScattered clouds.17 mph53%30.04 "HgN/A
3:30 PM73 °FPassing clouds.16 mph61%30.04 "HgN/A
3:00 PM75 °FPassing clouds.15 mph57%30.04 "HgN/A
2:30 PM75 °FPassing clouds.15 mph54%30.04 "HgN/A
2:00 PM75 °FSunny.15 mph44%30.07 "Hg10 mi
1:30 PM75 °FPassing clouds.17 mph47%30.07 "HgN/A
1:00 PM75 °FPassing clouds.16 mph47%30.09 "HgN/A
12:30 PM75 °FPassing clouds.16 mph47%30.09 "HgN/A
12:00 PM73 °FPassing clouds.15 mph47%30.12 "HgN/A
11:30 AM75 °FPassing clouds.15 mph44%30.12 "HgN/A
11:00 AM75 °FPassing clouds.14 mph44%30.15 "HgN/A
10:30 AM73 °FPassing clouds.10 mph44%30.15 "HgN/A
10:00 AM72 °FPassing clouds.12 mph47%30.15 "HgN/A
9:00 AM72 °FPassing clouds.3 mph50%30.18 "HgN/A
8:30 AM70 °FPassing clouds.3 mph53%30.18 "HgN/A
8:00 AM70 °FPassing clouds.6 mph53%30.18 "HgN/A
7:30 AM68 °FPassing clouds.7 mph60%30.18 "HgN/A
7:00 AM64 °FPassing clouds.7 mph68%30.18 "HgN/A
6:30 AM63 °FPassing clouds.8 mph73%30.18 "HgN/A
6:00 AM59 °FPassing clouds.6 mph82%30.18 "HgN/A
5:30 AM55 °FPassing clouds.7 mph88%30.18 "HgN/A
5:00 AM55 °FPassing clouds.7 mph88%30.15 "HgN/A
4:30 AM57 °FPassing clouds.8 mph82%30.15 "HgN/A
4:00 AM57 °FPassing clouds.7 mph82%30.15 "HgN/A
3:30 AM57 °FPassing clouds.8 mph88%30.15 "HgN/A
3:00 AM59 °FPassing clouds.7 mph82%30.15 "HgN/A
2:30 AM59 °FPassing clouds.6 mph82%30.15 "HgN/A
2:00 AM59 °FPassing clouds.No wind82%30.15 "HgN/A
1:30 AM61 °FPassing clouds.5 mph77%30.15 "HgN/A
1:00 AM64 °FPassing clouds.5 mph68%30.18 "HgN/A
12:30 AM64 °FPassing clouds.5 mph68%30.18 "HgN/A
12:00 AM66 °FPassing clouds.6 mph64%30.18 "HgN/A
11:30 PM
Oct 22
66 °FPassing clouds.6 mph64%30.18 "HgN/A
11:00 PM66 °FPassing clouds.6 mph64%30.21 "HgN/A
10:30 PM66 °FPassing clouds.5 mph64%30.21 "HgN/A
10:00 PM66 °FPassing clouds.6 mph64%30.21 "HgN/A
Weather by CustomWeather, © 2014

See weather overviewHow to use our weather pages